FW1480 Weather Reports


Display with metric or nautical units.
time (UTC)temp
F
wind
direction
speed
MPH
gust
MPH
rain 1hr
in
rain 24hr
in
rain mn
in
humidity
%
barometer
mb
20260509192049 56 91 0.0 0.0 0.09 0.09 0.09 90 1013.4
20260509191550 56 193 0.0 0.0 0.06 0.06 0.06 90 1013.5
20260509191049 57 193 0.0 0.0 0.04 0.04 0.04 90 1013.6
20260509190550 57 193 0.0 0.0 0.03 0.03 0.03 89 1013.4
20260509190049 57 193 0.0 0.0 0.02 0.02 0.02 88 1013.3
20260509185049 57 193 0.0 0.0 0.01 0.01 0.01 86 1013.3
20260509184549 58 193 0.0 0.0 0.00 0.01 0.00 84 1013.2
20260509184047 58 193 0.0 0.0 0.00 0.01 0.00 84 1013.1
20260509183547 58 193 0.0 0.0 0.00 0.01 0.00 82 1013.0
20260509183046 58 193 0.0 0.0 0.00 0.01 0.00 80 1013.0
20260509182544 59 193 0.0 0.0 0.00 0.01 0.00 80 1013.0
20260509182046 59 193 0.0 0.0 0.00 0.01 0.00 78 1012.8
20260509181548 59 38 0.0 0.0 0.00 0.01 0.00 77 1012.7
20260509181044 59 161 0.0 0.0 0.00 0.01 0.00 78 1012.6
20260509180542 59 124 0.0 0.0 0.00 0.01 0.00 78 1012.8
20260509180041 59 124 0.0 0.0 0.00 0.01 0.00 77 1012.8
20260509175540 59 170 0.0 0.0 0.00 0.01 0.00 80 1012.8
20260509175040 59 170 0.0 0.0 0.00 0.01 0.00 80 1012.8
20260509174033 58 172 0.0 0.0 0.00 0.01 0.00 81 1012.7
20260509173527 58 172 0.0 0.0 0.00 0.01 0.00 80 1012.9
20260509173020 58 172 0.0 0.0 0.00 0.01 0.00 80 1012.9
20260509172516 58 172 0.0 0.0 0.00 0.01 0.00 80 1012.9
20260509172010 58 326 0.0 0.0 0.00 0.01 0.00 80 1012.9
20260509170957 58 126 0.0 0.0 0.00 0.01 0.00 82 1012.9
20260509170451 58 200 0.0 0.0 0.00 0.01 0.00 83 1012.9
20260509165945 57 138 0.0 0.0 0.00 0.01 0.00 85 1013.2
20260509165439 56 126 0.0 0.0 0.00 0.01 0.00 86 1013.2
20260509164932 56 139 0.0 0.0 0.00 0.01 0.00 86 1013.4
20260509163921 55 241 0.0 0.0 0.00 0.01 0.00 87 1013.7
20260509162909 55 214 0.0 0.0 0.00 0.01 0.00 89 1013.8
20260509162403 55 236 0.0 0.0 0.00 0.01 0.00 88 1013.8
20260509161858 54 244 0.0 0.0 0.00 0.01 0.00 89 1013.8
20260509161354 54 244 0.0 0.0 0.00 0.01 0.00 89 1013.9
20260509160854 54 244 0.0 0.0 0.00 0.01 0.00 89 1014.0
20260509155855 54 121 0.0 0.0 0.00 0.01 0.00 89 1013.8
20260509155353 54 121 0.0 0.0 0.00 0.01 0.00 89 1013.9
20260509154851 54 120 0.0 0.0 0.00 0.01 0.00 89 1014.1
20260509154348 54 218 0.0 0.0 0.00 0.01 0.00 89 1014.2
20260509153847 54 218 0.0 0.0 0.00 0.01 0.00 89 1014.2
20260509153344 54 115 0.0 0.0 0.00 0.01 0.00 89 1013.9
20260509152842 54 154 0.0 0.0 0.00 0.01 0.00 89 1014.1
20260509152340 54 136 0.0 0.0 0.00 0.01 0.00 89 1014.0
20260509151839 54 240 0.0 0.0 0.00 0.01 0.00 89 1014.1
20260509151336 54 139 0.0 0.0 0.00 0.01 0.00 89 1014.2
20260509150334 53 163 0.0 0.0 0.00 0.01 0.00 90 1014.0
20260509145835 53 126 0.0 0.0 0.00 0.01 0.00 90 1014.1
20260509145333 53 158 0.0 1.0 0.00 0.01 0.00 90 1014.1
20260509144831 53 134 0.0 1.0 0.00 0.01 0.00 90 1014.2
20260509144330 53 221 0.0 0.0 0.00 0.01 0.00 90 1014.1
20260509143833 52 115 0.0 0.0 0.00 0.01 0.00 91 1014.0
20260509143330 52 231 0.0 0.0 0.00 0.01 0.00 91 1014.0
20260509142825 52 200 0.0 0.0 0.00 0.01 0.00 92 1013.9
20260509142318 51 122 0.0 0.0 0.00 0.01 0.00 92 1013.8
20260509141818 51 139 0.0 0.0 0.00 0.01 0.00 93 1013.6
20260509140819 0 0.0 0.0 0.00 0.01 0.00 1013.8
20260509140319 0 0.0 0.0 0.00 0.01 0.00 1014.2
20260509135812 0 0.0 0.0 0.00 0.01 0.00 1014.3
20260509135246 0 0.0 0.0 0.00 0.01 0.00 1014.3
20260509134713 0 0.0 0.0 0.00 0.01 0.00 1014.0
20260509134209 0 0.0 0.0 0.00 0.01 0.00 1014.1
20260509133616 0 0.0 0.0 0.00 0.01 0.00 1014.2
20260509132527 0 0.0 0.0 0.00 0.01 0.00 1014.2
20260509132020 0 0.0 0.0 0.00 0.01 0.00 1014.2
20260509131521 0 0.0 0.0 0.00 0.01 0.00 1014.2
20260509131019 0 0.0 0.0 0.00 0.01 0.00 1014.3
20260509130518 0 0.0 0.0 0.00 0.01 0.00 1014.4
20260509125925 0 0.0 0.0 0.00 0.01 0.00 1014.4
20260509125413 0 0.0 0.0 0.00 0.01 0.00 1014.2
20260509124912 0 0.0 0.0 0.00 0.01 0.00 1014.1
20260509124321 0 0.0 0.0 0.00 0.01 0.00 1014.3
20260509123744 0 0.0 0.0 0.00 0.01 0.00 1014.1
20260509123216 0 0.0 0.0 0.00 0.01 0.00 1014.3
20260509122714 0 0.0 0.0 0.00 0.01 0.00 1014.5
20260509121622 0 0.0 0.0 0.00 0.01 0.00 1014.6
20260509121109 0 0.0 0.0 0.00 0.01 0.00 1014.4
20260509120603 0 0.0 0.0 0.00 0.01 0.00 1014.6
20260509120016 0 0.0 0.0 0.00 0.01 0.00 1014.6
20260509115517 0 0.0 0.0 0.00 0.01 0.00 1014.7
20260509114927 0 0.0 0.0 0.00 0.01 0.00 1014.6
20260509114424 0 0.0 0.0 0.00 0.01 0.00 1014.5
20260509113916 0 0.0 0.0 0.00 0.01 0.00 1014.4
20260509113320 0 0.0 0.0 0.00 0.01 0.00 1014.5
20260509112821 0 0.0 0.0 0.00 0.01 0.00 1014.7
20260509112228 0 0.0 0.0 0.00 0.01 0.00 1014.7
20260509111719 0 0.0 0.0 0.00 0.01 0.00 1014.6
20260509111216 0 0.0 0.0 0.00 0.01 0.00 1014.7
20260509110715 0 0.0 0.0 0.00 0.01 0.00 1014.6
20260509110128 0 0.0 0.0 0.00 0.01 0.00 1014.5
20260509105628 0 0.0 0.0 0.00 0.01 0.00 1014.5
20260509105119 0 0.0 0.0 0.00 0.01 0.00 1014.5
20260509104116 0 0.0 0.0 0.00 0.01 0.00 1014.4
20260509103525 0 0.0 0.0 0.00 0.01 0.00 1014.4
20260509103024 0 0.0 0.0 0.00 0.01 0.00 1014.3
20260509102519 0 0.0 0.0 0.00 0.01 0.00 1014.4
20260509101926 0 0.0 0.0 0.00 0.01 0.00 1014.4
20260509101422 0 0.0 0.0 0.00 0.01 0.00 1014.3
20260509100920 0 0.0 0.0 0.00 0.01 0.00 1014.3
20260509095820 0 0.0 0.0 0.00 0.01 0.00 1014.4
20260509095317 0 0.0 0.0 0.00 0.01 0.00 1014.3
20260509094811 0 0.0 0.0 0.00 0.01 0.00 1014.2
20260509094228 0 0.0 0.0 0.00 0.01 0.00 1014.2
20260509093718 0 0.0 0.0 0.00 0.01 0.00 1014.3
20260509093215 0 0.0 0.0 0.00 0.01 0.00 1014.3
20260509092128 0 0.0 0.0 0.00 0.01 0.00 1014.3
20260509091627 0 0.0 0.0 0.00 0.01 0.00 1014.2
20260509091114 0 0.0 0.0 0.00 0.01 0.00 1014.3
20260509090518 0 0.0 0.0 0.00 0.01 0.00 1014.3
20260509084319 0 0.0 0.0 0.00 0.01 0.00 1014.3
20260509083816 0 0.0 0.0 0.00 0.01 0.00 1014.3
20260509083224 0 0.0 0.0 0.00 0.01 0.00 1014.2
20260509082214 0 0.0 0.0 0.00 0.01 0.00 1014.2
20260509081621 0 0.0 0.0 0.00 0.01 0.00 1014.1
20260509080526 0 0.0 0.0 0.00 0.01 0.00 1014.3
20260509080025 0 0.0 0.0 0.00 0.01 0.00 1014.3
20260509074918 0 0.0 0.0 0.00 0.01 0.00 1014.3
20260509074415 0 0.0 0.0 0.00 0.01 0.00 1014.2
20260509073823 0 0.0 0.0 0.00 0.01 0.00 1014.2
20260509073318 0 0.0 0.0 0.00 0.01 0.00 1014.2
20260509072819 0 0.0 0.0 0.00 0.01 0.00 1014.2
20260509072316 0 78 0.0 0.0 0.00 0.01 0.00 1014.1
20260509071727 48 78 0.0 0.0 0.00 0.01 0.00 86 1014.3
20260509070216 48 77 0.0 0.0 0.00 0.01 0.00 86 1014.2
20260509065716 48 77 0.0 0.0 0.00 0.01 0.00 86 1014.1
20260509064713 48 77 0.0 0.0 0.00 0.01 0.00 85 1014.2
20260509064214 48 77 0.0 0.0 0.00 0.01 0.00 85 1014.1
20260509063716 48 77 0.0 0.0 0.00 0.01 0.00 85 1014.2
20260509063214 48 77 0.0 0.0 0.00 0.01 0.00 85 1014.3
20260509062716 48 77 0.0 0.0 0.00 0.01 0.00 84 1014.4
20260509062212 48 77 0.0 0.0 0.00 0.01 0.00 84 1014.4
20260509061713 48 77 0.0 0.0 0.00 0.01 0.00 84 1014.5
20260509061212 48 77 0.0 0.0 0.00 0.01 0.00 84 1014.7
20260509060714 48 77 0.0 0.0 0.00 0.01 0.00 84 1014.7
20260509060213 48 77 0.0 0.0 0.00 0.01 0.00 85 1014.9
20260509055714 48 77 0.0 0.0 0.00 0.01 0.00 84 1014.7
20260509055214 48 77 0.0 0.0 0.00 0.01 0.00 84 1014.7
20260509054712 48 77 0.0 0.0 0.00 0.01 0.00 84 1014.8
20260509054213 48 77 0.0 0.0 0.00 0.01 0.00 84 1014.7
20260509053714 48 77 0.0 0.0 0.00 0.01 0.00 84 1014.8
20260509053212 48 77 0.0 0.0 0.00 0.01 0.00 83 1014.7
20260509052712 48 77 0.0 0.0 0.00 0.01 0.00 84 1014.6
20260509051713 49 77 0.0 0.0 0.00 0.01 0.00 84 1014.5
20260509051213 48 77 0.0 0.0 0.00 0.01 0.00 83 1014.5
20260509050711 48 77 0.0 0.0 0.00 0.01 0.00 84 1014.6
20260509050210 48 77 0.0 0.0 0.00 0.01 0.00 84 1014.6
20260509045710 48 77 0.0 0.0 0.00 0.01 0.00 84 1014.6
20260509044206 48 77 0.0 0.0 0.00 0.01 0.00 84 1014.8
20260509043200 48 77 0.0 0.0 0.00 0.01 0.00 84 1014.8
20260509042701 48 77 0.0 0.0 0.00 0.01 0.00 83 1014.8
20260509041656 48 77 0.0 0.0 0.00 0.01 0.00 84 1014.8
20260509041157 48 77 0.0 0.0 0.00 0.01 0.00 83 1014.7
20260509040653 48 77 0.0 0.0 0.00 0.01 0.00 83 1015.0
20260509040151 48 77 0.0 0.0 0.00 0.01 0.00 82 1015.0
20260509035148 48 77 0.0 0.0 0.00 0.01 0.01 82 1015.0
20260509034647 48 77 0.0 0.0 0.00 0.01 0.01 81 1014.9
20260509034144 48 77 0.0 0.0 0.00 0.01 0.01 80 1014.8
20260509033644 48 77 0.0 0.0 0.00 0.01 0.01 80 1014.8
20260509033143 48 77 0.0 0.0 0.00 0.01 0.01 80 1014.9
20260509032140 48 77 0.0 0.0 0.00 0.01 0.01 80 1014.6
20260509031137 49 77 0.0 0.0 0.00 0.01 0.01 79 1014.6
20260509030634 49 77 0.0 0.0 0.00 0.01 0.01 78 1014.6
20260509030133 49 77 0.0 0.0 0.00 0.01 0.01 79 1014.5
20260509025633 49 77 0.0 0.0 0.00 0.01 0.01 78 1014.5
20260509025133 48 77 0.0 0.0 0.00 0.01 0.01 78 1014.4
20260509024630 48 77 0.0 0.0 0.00 0.01 0.01 77 1014.3
20260509024125 48 77 0.0 0.0 0.00 0.01 0.01 78 1014.4
20260509023618 48 77 0.0 0.0 0.00 0.01 0.01 78 1014.5
20260509022618 48 77 0.0 0.0 0.00 0.01 0.01 79 1014.3
20260509022119 48 77 0.0 0.0 0.00 0.01 0.01 79 1014.4
20260509021617 47 77 0.0 0.0 0.00 0.01 0.01 79 1014.4
20260509021119 47 77 0.0 0.0 0.00 0.01 0.01 79 1014.5
20260509020619 47 77 0.0 0.0 0.00 0.01 0.01 78 1014.4
20260509020118 47 77 0.0 0.0 0.00 0.01 0.01 79 1014.5
20260509015620 47 77 0.0 0.0 0.00 0.01 0.01 78 1014.5
20260509015117 47 77 0.0 0.0 0.00 0.01 0.01 79 1014.5
20260509014116 47 77 0.0 0.0 0.00 0.01 0.01 78 1014.3
20260509013617 47 77 0.0 0.0 0.00 0.01 0.01 78 1014.2
20260509013113 47 77 0.0 0.0 0.00 0.01 0.01 78 1014.3
20260509011612 47 77 0.0 0.0 0.00 0.01 0.01 78 1014.2
20260509011112 47 77 0.0 0.0 0.00 0.01 0.01 77 1014.2
20260509010611 47 77 0.0 0.0 0.00 0.01 0.01 77 1014.1
20260509010113 47 77 0.0 0.0 0.00 0.01 0.01 77 1014.1
20260509005612 47 77 0.0 0.0 0.00 0.01 0.01 77 1014.0
20260509004612 48 77 0.0 0.0 0.00 0.01 0.01 75 1013.7
20260509004112 48 77 0.0 0.0 0.00 0.01 0.01 75 1013.5
20260509003612 49 77 0.0 0.0 0.00 0.01 0.01 74 1013.5
20260509003112 49 77 0.0 0.0 0.00 0.01 0.01 74 1013.4
20260509002610 49 77 0.0 0.0 0.00 0.01 0.01 73 1013.3
20260509002110 50 80 0.0 0.0 0.00 0.01 0.01 74 1013.3
20260509001611 50 80 0.0 0.0 0.00 0.01 0.01 72 1013.3
20260509001108 51 80 0.0 0.0 0.00 0.01 0.01 71 1013.2
20260509000605 51 80 0.0 0.0 0.00 0.01 0.01 69 1013.1
20260509000104 52 80 0.0 0.0 0.00 0.01 0.01 68 1013.1
20260508235602 52 86 0.0 0.0 0.00 0.01 0.01 66 1013.1
20260508235104 52 86 0.0 0.0 0.00 0.01 0.01 66 1012.9
20260508234557 53 86 0.0 0.0 0.00 0.01 0.01 65 1012.9
20260508234052 53 88 0.0 0.0 0.00 0.01 0.01 67 1012.9
20260508233546 53 88 0.0 0.0 0.00 0.01 0.01 66 1012.9
20260508233040 53 88 0.0 0.0 0.00 0.01 0.01 66 1012.9
20260508232534 53 88 0.0 0.0 0.00 0.01 0.01 66 1012.7
20260508231521 53 88 0.0 0.0 0.00 0.01 0.01 66 1012.7
20260508231015 54 88 0.0 0.0 0.00 0.01 0.01 66 1012.6
20260508230510 54 88 0.0 0.0 0.00 0.01 0.01 64 1012.6
20260508230003 54 88 0.0 0.0 0.00 0.01 0.01 63 1012.5
20260508225457 54 88 0.0 0.0 0.00 0.01 0.01 62 1012.6
20260508224951 55 88 0.0 0.0 0.00 0.01 0.01 59 1012.5
20260508224445 55 88 0.0 0.0 0.00 0.01 0.01 58 1012.5
20260508223940 55 163 0.0 0.0 0.00 0.01 0.01 58 1012.4
20260508222927 55 163 0.0 0.0 0.00 0.01 0.01 56 1012.4
20260508222421 56 167 0.0 0.0 0.00 0.01 0.01 60 1012.4
20260508221915 56 167 0.0 0.0 0.00 0.01 0.01 58 1012.4
20260508221410 56 196 0.0 0.0 0.00 0.01 0.01 57 1012.4
20260508220903 56 120 0.0 0.0 0.00 0.01 0.01 57 1012.3
20260508220358 56 285 0.0 0.0 0.00 0.01 0.01 59 1012.4
20260508214840 56 89 0.0 0.0 0.00 0.01 0.01 58 1012.6
20260508213828 56 47 0.0 1.0 0.00 0.01 0.01 59 1012.6
20260508213322 56 116 0.0 0.0 0.00 0.01 0.01 59 1012.5
20260508212815 56 98 0.0 0.0 0.00 0.01 0.01 60 1012.6
20260508212309 56 175 0.0 0.0 0.00 0.01 0.01 61 1012.5
20260508211803 56 84 0.0 2.0 0.00 0.01 0.01 60 1012.4
20260508211257 56 359 0.0 2.0 0.00 0.01 0.01 59 1012.4
20260508210751 56 131 0.0 2.0 0.00 0.01 0.01 60 1012.4
20260508210245 56 97 0.0 2.0 0.00 0.01 0.01 59 1012.3
20260508205741 56 141 0.0 5.0 0.00 0.01 0.01 62 1012.3
20260508205241 55 133 0.0 5.0 0.00 0.01 0.01 61 1012.3
20260508204741 55 222 0.0 3.0 0.00 0.01 0.01 62 1012.4
20260508204241 55 120 0.0 3.0 0.00 0.01 0.01 65 1012.5
20260508203240 54 119 0.0 2.0 0.00 0.01 0.01 67 1012.0
20260508202739 54 136 0.0 3.0 0.00 0.01 0.01 67 1012.2
20260508202240 54 127 0.0 3.0 0.00 0.01 0.01 70 1012.2
20260508201739 53 127 0.0 6.0 0.00 0.01 0.01 70 1012.1
20260508201239 53 235 0.0 6.0 0.00 0.01 0.01 68 1012.2
20260508200738 53 238 0.0 2.0 0.00 0.01 0.01 73 1012.1
20260508200238 53 182 0.0 1.0 0.00 0.01 0.01 73 1012.2
20260508195237 51 130 0.0 2.0 0.00 0.01 0.01 76 1012.3
20260508194738 51 146 0.0 1.0 0.01 0.01 0.01 77 1012.5
20260508194236 51 153 0.0 1.0 0.01 0.01 0.01 77 1012.6
20260508193736 51 142 0.0 0.0 0.01 0.01 0.01 80 1012.7
20260508193230 51 200 0.0 2.0 0.01 0.01 0.01 79 1012.9
20260508192724 50 153 0.0 2.0 0.01 0.01 0.01 79 1012.9
20260508192221 50 194 0.0 3.0 0.01 0.01 0.01 80 1013.1